Aérodrome :
LOGIN :

S'inscrire | Disclaimer

   EN    FR    IT 

 










Légende :    VFR   VFR Marginal   IFR   IFR Intensif   IFR Très Intensif
Visi : 
Plafond : 
>= 8 km
>= 3000ft
5 à 8 km
1000 à 3000 ft
1500m à 5 km
500 à 1000 ft
800 à 1500m
200 à 500 ft
< 800m
< 200 ft
Symboles :   Orages  Brouillard  Fortes neiges  Fortes précipitations  Vent > 20 kt
SIGMETs :   Divers  Orages  Givrage  Turbulence  Onde Orograph.  Cendres Volcan.







- Altitude de l'aérodrome : 19 ft
- Code IATA : LCY
- Voir les cartes d'approche


EGLC - London City

DERNIER METAR :
  • 231120Z AUTO 30012KT 260V330 9999 NCD 21/M00 Q1028

METARs EXPIRÉS :
  • 231050Z AUTO 29012KT 9999 NCD 21/M02 Q1028
  • 231020Z AUTO 29010KT 240V310 9999 NCD 22/00 Q1028
  • 230950Z AUTO 28010KT 250V320 9999 NCD 21/01 Q1028
  • 230920Z AUTO 26009KT 210V290 9999 NCD 20/02 Q1028
  • 230850Z AUTO 24009KT 9999 NCD 19/04 Q1028

TAF TAF EGLC
Valide du 23 à 09h jusqu'au 23 à 12h UTC


230806Z 2309/2312 25006KT CAVOK
BECMG 2309/2312 33010KT
ATIS : +44 20 7646 0224
Pas de NOTAMs connus pour ce terrain.



MET'MAP, la Météo Aéronautique d'un coup d'oeil ! - Copyright ORBIFLY Décembre 2007 - Disclaimer

ORBIFLY MET'MAP TEAM :

Programmation & Développement : Alexandra Zaïnal
Conception & Développement : Baudouin d'Aumeries
Co-Programmation & Développement : Marc-Olivier Méhu
Soutien technique & logistique : Manuel Goepfert

Contact : metmap@orbifly.com




SOURCES & CREDITS :

   NOAA